Weather History for Valdosta, GA

Change the Weather History Date:

Monday, November 26, 2012

  Actual Average Record
Temperature  
Mean Temperature 50 °F -  
Max Temperature 69 °F 66 °F 82 °F (2001)
Min Temperature 30 °F 46 °F 30 °F (2012)
Degree Days  
Heating Degree Days 16    
Moisture  
Dew Point 32 °F    
Average Humidity 58    
Maximum Humidity 91    
Minimum Humidity 19    
Precipitation  
Precipitation 0.00 in - - ()
Sea Level Pressure  
Sea Level Pressure 30.20 in    
Wind  
Wind Speed 0 mph (South)    
Max Wind Speed 6 mph    
Max Gust Speed -    
Visibility 10 miles    
Events      
Averages and records for this station are not official NWS values.
T = Trace of Precipitation, MM = Missing Value Source: NWS Daily Summary

Daily Weather History Graph

Daily Weather History Graph

Search for Another Location

Airport:

Trip Planner

Search our weather history database for the weather conditions in past years. The results will help you decide how hot, cold, wet, or windy it might be!

Date:

Astronomy

Nov. 26, 2012 Rise Set
Actual Time 7:09 AM EST 5:30 PM EST
Civil Twilight 6:43 AM EST 5:57 PM EST
Nautical Twilight 6:13 AM EST 6:26 PM EST
Astronomical Twilight 5:44 AM EST 6:55 PM EST
Moon 4:19 PM EST (11/26) 5:22 AM EST (11/26)
Length of Visible Light 11h 13m
Length of Day
10h 21m
Waxing Gibbous, 97% of the Moon is Illuminated
Nov 26
Waxing Gibbous
Nov 28
Full
Dec 6
Last Quarter
Dec 13
New
Dec 20
First Quarter

Hourly Weather History & Observations

Time (EST) Temp. Dew Point Humidity Pressure Visibility Wind Dir Wind Speed Gust Speed Precip Events Conditions
12:55 AM 36.9 °F 33.4 °F 87% 30.17 in 10.0 mi Calm Calm - N/A   Clear
1:55 AM 35.8 °F 32.0 °F 86% 30.16 in 10.0 mi Calm Calm - N/A   Clear
2:55 AM 34.9 °F 31.6 °F 88% 30.16 in 10.0 mi Calm Calm - N/A   Clear
3:55 AM 33.8 °F 30.6 °F 88% 30.18 in 10.0 mi Calm Calm - N/A   Clear
4:55 AM 31.3 °F 28.4 °F 89% 30.17 in 10.0 mi Calm Calm - N/A   Clear
5:55 AM 32.2 °F 29.8 °F 91% 30.20 in 10.0 mi Calm Calm - N/A   Clear
6:55 AM 31.5 °F 28.0 °F 87% 30.22 in 10.0 mi Calm Calm - N/A   Clear
7:16 AM 30.2 °F 26.6 °F 86% 30.21 in 7.0 mi Calm Calm - N/A   Clear
7:24 AM 30.2 °F 26.6 °F 86% 30.23 in 10.0 mi Calm Calm - N/A   Clear
7:55 AM 34.0 °F 30.0 °F 85% 30.24 in 10.0 mi Calm Calm - N/A   Clear
8:55 AM 46.8 °F 33.4 °F 60% 30.25 in 10.0 mi Calm Calm - N/A   Clear
9:55 AM 57.9 °F 29.8 °F 34% 30.27 in 10.0 mi Calm Calm - N/A   Clear
10:55 AM 61.7 °F 27.0 °F 27% 30.26 in 10.0 mi East 3.5 mph - N/A   Clear
11:55 AM 66.6 °F 25.5 °F 21% 30.25 in 10.0 mi West 5.8 mph - N/A   Clear
12:55 PM 67.5 °F 25.7 °F 21% 30.22 in 10.0 mi Variable 3.5 mph - N/A   Clear
1:55 PM 68.4 °F 24.1 °F 19% 30.19 in 10.0 mi Variable 3.5 mph - N/A   Partly Cloudy
2:55 PM 69.1 °F 24.4 °F 19% 30.17 in 10.0 mi Calm Calm - N/A   Clear
3:55 PM 67.5 °F 25.9 °F 21% 30.17 in 10.0 mi Calm Calm - N/A   Mostly Cloudy
4:55 PM 63.9 °F 35.6 °F 35% 30.18 in 10.0 mi Calm Calm - N/A   Scattered Clouds
5:55 PM 59.0 °F 37.6 °F 45% 30.19 in 10.0 mi Calm Calm - N/A   Mostly Cloudy
6:55 PM 56.3 °F 37.6 °F 50% 30.20 in 10.0 mi Calm Calm - N/A   Mostly Cloudy
7:55 PM 55.4 °F 38.8 °F 54% 30.20 in 10.0 mi Calm Calm - N/A   Mostly Cloudy
8:55 PM 54.5 °F 41.2 °F 61% 30.19 in 10.0 mi Calm Calm - N/A   Overcast
9:55 PM 54.5 °F 41.4 °F 61% 30.20 in 10.0 mi Calm Calm - N/A   Overcast
10:55 PM 54.3 °F 38.7 °F 55% 30.20 in 10.0 mi Calm Calm - N/A   Overcast
11:55 PM 55.2 °F 37.6 °F 52% 30.20 in 10.0 mi Calm Calm - N/A   Overcast